Change the Weather History Date:

Wednesday, May 8, 2013

  Actual Average Record
Temperature  
Mean Temperature 64 °F -  
Max Temperature 68 °F 69 °F 84 °F (2000)
Min Temperature 59 °F 52 °F 37 °F (1997)
Degree Days  
Heating Degree Days 2    
Growing Degree Days 14 (Base 50)    
Moisture  
Dew Point 58 °F    
Average Humidity 90    
Maximum Humidity 100    
Minimum Humidity 68    
Precipitation  
Precipitation 0.01 in - - ()
Sea Level Pressure  
Sea Level Pressure 30.00 in    
Wind  
Wind Speed 5 mph (East)    
Max Wind Speed 9 mph    
Max Gust Speed -    
Visibility 10 miles    
Events Rain , Thunderstorm    
Averages and records for this station are not official NWS values.
T = Trace of Precipitation, MM = Missing Value Source: NWS Daily Summary

Daily Weather History Graph

Daily Weather History Graph

Search for Another Location

Airport or City:

Trip Planner

Search our weather history database for the weather conditions in past years. The results will help you decide how hot, cold, wet, or windy it might be!

Date:

Astronomy

May. 08, 2013 Rise Set
Actual Time 5:58 AM EDT 8:06 PM EDT
Civil Twilight 5:29 AM EDT 8:35 PM EDT
Nautical Twilight 4:52 AM EDT 9:12 PM EDT
Astronomical Twilight 4:13 AM EDT 9:51 PM EDT
Moon 5:05 AM EDT (5/8) 7:02 PM EDT (5/8)
Length of Visible Light 15h 06m
Length of Day
14h 07m
Waning Crescent, 2% of the Moon is Illuminated
May 8
Waning Crescent
May 9
New
May 18
First Quarter
May 25
Full
May 31
Last Quarter

Hourly Weather History & Observations

Time (EDT) Temp. Dew Point Humidity Pressure Visibility Wind Dir Wind Speed Gust Speed Precip Events Conditions
12:06 AM 60.8 °F 59.0 °F 94% 30.02 in 10.0 mi ENE 9.2 mph - N/A   Mostly Cloudy
12:27 AM 60.8 °F 59.0 °F 94% 30.02 in 10.0 mi ENE 8.1 mph - N/A   Scattered Clouds
12:45 AM 60.8 °F 59.0 °F 94% 30.03 in 10.0 mi ENE 8.1 mph - N/A   Mostly Cloudy
1:06 AM 60.8 °F 59.0 °F 94% 30.02 in 10.0 mi ENE 4.6 mph - N/A   Mostly Cloudy
1:27 AM 60.8 °F 59.0 °F 94% 30.02 in 10.0 mi ENE 5.8 mph - N/A   Drizzle
1:45 AM 60.8 °F 59.0 °F 94% 30.01 in 10.0 mi ENE 4.6 mph - N/A Rain Light Rain
2:06 AM 60.8 °F 59.0 °F 94% 30.01 in 7.0 mi ENE 5.8 mph - N/A   Scattered Clouds
2:27 AM 60.8 °F 59.0 °F 94% 30.00 in 10.0 mi NE 4.6 mph - N/A   Scattered Clouds
2:45 AM 60.8 °F 59.0 °F 94% 29.99 in 10.0 mi NE 4.6 mph - 0.01 in   Light Drizzle
3:06 AM 60.8 °F 59.0 °F 94% 29.99 in 10.0 mi ENE 3.5 mph - N/A   Scattered Clouds
3:27 AM 60.8 °F 59.0 °F 94% 29.98 in 10.0 mi ENE 3.5 mph - N/A   Mostly Cloudy
3:45 AM 60.8 °F 59.0 °F 94% 29.99 in 10.0 mi ENE 4.6 mph - N/A   Mostly Cloudy
4:06 AM 59.0 °F 59.0 °F 100% 29.98 in 10.0 mi ENE 4.6 mph - N/A   Mostly Cloudy
4:27 AM 59.0 °F 59.0 °F 100% 29.98 in 10.0 mi Calm Calm - N/A   Mostly Cloudy
4:45 AM 59.0 °F 59.0 °F 100% 29.99 in 10.0 mi ENE 3.5 mph - N/A   Mostly Cloudy
5:06 AM 59.0 °F 59.0 °F 100% 29.98 in 10.0 mi Calm Calm - N/A   Scattered Clouds
5:27 AM 59.0 °F 59.0 °F 100% 29.98 in 10.0 mi ENE 4.6 mph - N/A   Scattered Clouds
5:36 AM 59.0 °F 59.0 °F 100% 29.98 in 10.0 mi Calm Calm - N/A   Scattered Clouds
5:45 AM 59.0 °F 59.0 °F 100% 29.98 in 10.0 mi Calm Calm - N/A   Mostly Cloudy
6:45 AM 59.0 °F 59.0 °F 100% 30.00 in 10.0 mi Calm Calm - N/A   Overcast
7:45 AM 60.8 °F 60.8 °F 100% 30.01 in 10.0 mi ENE 5.8 mph - N/A   Mostly Cloudy
8:45 AM 60.8 °F 59.0 °F 94% 30.02 in 10.0 mi SE 3.5 mph - N/A   Mostly Cloudy
9:45 AM 62.6 °F 59.0 °F 88% 30.02 in 10.0 mi SSE 3.5 mph - N/A   Mostly Cloudy
10:45 AM 66.2 °F 62.6 °F 88% 30.02 in 10.0 mi ESE 4.6 mph - N/A   Mostly Cloudy
11:45 AM 66.2 °F 60.8 °F 83% 30.02 in 10.0 mi SE 8.1 mph - N/A   Mostly Cloudy
12:45 PM 68.0 °F 62.6 °F 83% 30.00 in 10.0 mi ESE 9.2 mph - N/A   Scattered Clouds
1:45 PM 68.0 °F 59.0 °F 73% 29.99 in 10.0 mi SE 9.2 mph - N/A   Scattered Clouds
2:50 PM 68.0 °F 59.0 °F 73% 29.98 in 10.0 mi ESE 9.2 mph - N/A   Scattered Clouds
3:50 PM 66.2 °F 59.0 °F 78% 29.97 in 10.0 mi SE 9.2 mph - N/A Thunderstorm Thunderstorm
4:45 PM 66.2 °F 57.2 °F 73% 29.97 in 7.0 mi South 9.2 mph - N/A   Mostly Cloudy
5:50 PM 66.2 °F 55.4 °F 68% 29.96 in 10.0 mi SSW 9.2 mph - N/A   Mostly Cloudy
7:55 PM 62.6 °F 55.4 °F 77% 29.98 in 10.0 mi SW 9.2 mph - N/A   Mostly Cloudy
9:45 PM 62.6 °F 55.4 °F 77% 30.00 in 10.0 mi Calm Calm - N/A   Mostly Cloudy
10:09 PM 60.8 °F 55.4 °F 82% 29.99 in 10.0 mi Calm Calm - N/A   Mostly Cloudy
10:27 PM 59.0 °F 55.4 °F 88% 30.00 in 10.0 mi Calm Calm - N/A   Scattered Clouds
10:48 PM 59.0 °F 55.4 °F 88% 30.00 in 10.0 mi Calm Calm - N/A   Scattered Clouds
11:09 PM 59.0 °F 55.4 °F 88% 29.99 in 10.0 mi Calm Calm - N/A   Clear
11:27 PM 59.0 °F 55.4 °F 88% 29.99 in 10.0 mi Calm Calm - N/A   Clear